Home > Weather > Zarqa > Past weeks

Flag for Jordan Past Weather in Zarqa, Jordan — Yesterday and Last 2 Weeks

Now
72 °F

Passing clouds.


Feels Like: 74 °F
Forecast: 72 / 96 °F
Wind: 6 mph from Southwest

Location: Amman Airport

Current Time: Aug 29, 2016 at 6:57:48 AM

Latest Report: Aug 29, 2016 at 6:00 AM


Visibility: 4 mi

Pressure: 29.95 "Hg (27.89 "Hg at 615m altitude)

Humidity: 73%

Dew Point: 63 °F

Location of ZarqaLocation

Past Weather in Zarqa — Graph

°F

Zarqa Temperature Yesterday

Maximum temperature yesterday: 91 °F (at 3:00 PM)
Minimum temperature yesterday: 68 °F (at 5:00 AM)
Average temperature yesterday: 79 °F

High & Low Weather Summary for the Past Weeks

 TemperatureHumidityPressure
High97 °F (Aug 20, 3:00 PM)88% (Aug 28, 6:00 AM)30.01 "Hg (Aug 28, 6:00 AM)
Low66 °F (Aug 17, 5:00 AM)12% (Aug 27, 1:00 PM)29.83 "Hg (Aug 17, 2:00 PM)
Average81 °F47%29.90 "Hg
* Reported Aug 14 5:00 AM — Aug 29 5:00 AM, Zarqa, Weather by CustomWeather, © 2016

Note: Actual official high and low records may vary slightly from our data, if they occured in-between our weather recording intervals... More about our weather records

Advertising

Zarqa Weather History for the Previous 24 Hours

Scroll right to see more
 ConditionsComfort  
Time TempWeatherWind HumidityBarometerVisibility
5:00 AM
Mon, Aug 29
72 °FPassing clouds.8 mph69%29.95 "Hg4 mi
4:00 AM70 °FPassing clouds.6 mph83%29.98 "Hg4 mi
3:00 AM70 °FPassing clouds.5 mph83%29.98 "Hg4 mi
2:00 AM72 °FClear.8 mph78%29.98 "Hg4 mi
1:00 AM72 °FClear.8 mph73%29.98 "Hg4 mi
12:00 AM73 °FClear.6 mph69%29.98 "Hg4 mi
11:00 PM
Sun, Aug 28
77 °FClear.3 mph61%29.98 "Hg4 mi
10:00 PM77 °FClear.5 mph57%29.98 "Hg4 mi
9:00 PM77 °FClear.7 mph61%29.98 "Hg4 mi
8:00 PM79 °FClear.8 mph48%29.98 "Hg4 mi
7:00 PM81 °FHaze.9 mph42%29.98 "Hg3 mi
6:00 PM84 °FHaze.14 mph35%29.95 "Hg3 mi
5:00 PM88 °FHaze.13 mph33%29.95 "Hg3 mi
4:00 PM90 °FHaze.13 mph29%29.98 "Hg3 mi
3:00 PM91 °FHaze.16 mph28%29.98 "Hg3 mi
2:00 PM90 °FHaze.6 mph24%30.01 "Hg3 mi
1:00 PM90 °FHaze.6 mph27%30.01 "Hg3 mi
12:00 PM88 °FHaze.6 mph24%30.01 "Hg3 mi
11:00 AM84 °FHaze.6 mph37%30.01 "Hg3 mi
10:00 AM81 °FHaze.12 mph39%30.01 "Hg3 mi
9:00 AM77 °FHaze.5 mph51%30.01 "Hg3 mi
8:00 AM73 °FHaze.7 mph65%30.01 "Hg3 mi
7:00 AM70 °FHaze.6 mph78%30.01 "Hg2 mi
6:00 AM68 °FFog.No wind88%30.01 "Hg3 mi
Weather by CustomWeather, © 2016

See weather overviewHow to use our weather pages